Weather History for Willimantic, CT

Change the Weather History Date:

Tuesday, August 13, 2013

  Actual Average Record
Temperature  
Mean Temperature 66 °F -  
Max Temperature 71 °F 79 °F 97 °F (2005)
Min Temperature 62 °F 56 °F 39 °F (1957)
Cooling Degree Days 1    
Growing Degree Days 16 (Base 50)    
Moisture  
Dew Point 63 °F    
Average Humidity 96    
Maximum Humidity 100    
Minimum Humidity 88    
Precipitation  
Precipitation 0.01 in - - ()
Sea Level Pressure  
Sea Level Pressure 29.84 in    
Wind  
Wind Speed 0 mph (South)    
Max Wind Speed 5 mph    
Max Gust Speed -    
Visibility 4 miles    
Events Fog , Rain    
Averages and records for this station are not official NWS values.
T = Trace of Precipitation, MM = Missing Value Source: NWS Daily Summary

Daily Weather History Graph

Daily Weather History Graph

Search for Another Location

Airport:

Trip Planner

Search our weather history database for the weather conditions in past years. The results will help you decide how hot, cold, wet, or windy it might be!

Date:

Astronomy

Aug. 13, 2013 Rise Set
Actual Time 5:55 AM EDT 7:51 PM EDT
Civil Twilight 5:25 AM EDT 8:21 PM EDT
Nautical Twilight 4:48 AM EDT 8:57 PM EDT
Astronomical Twilight 4:08 AM EDT 9:37 PM EDT
Moon 12:53 PM EDT (8/13) 11:16 PM EDT (8/13)
Length of Visible Light 14h 55m
Length of Day
13h 55m
Waxing Crescent, 41% of the Moon is Illuminated
Aug 13
Waxing Crescent
Aug 14
First Quarter
Aug 20
Full
Aug 28
Last Quarter
Sep 5
New

Hourly Weather History & Observations

Time (EDT) Temp. Dew Point Humidity Pressure Visibility Wind Dir Wind Speed Gust Speed Precip Events Conditions
12:52 AM 64.0 °F 61.0 °F 90% 29.94 in 10.0 mi Calm Calm - N/A   Clear
1:22 AM 62.6 °F 60.8 °F 94% 29.94 in 10.0 mi Calm Calm - N/A   Scattered Clouds
1:30 AM 62.6 °F 60.8 °F 94% 29.94 in 10.0 mi Calm Calm - N/A   Mostly Cloudy
1:50 AM 62.6 °F 60.8 °F 94% 29.93 in 9.0 mi Calm Calm - N/A   Overcast
1:52 AM 63.0 °F 61.0 °F 93% 29.93 in 9.0 mi Calm Calm - N/A   Overcast
2:52 AM 64.0 °F 61.0 °F 90% 29.91 in 10.0 mi Calm Calm - N/A   Overcast
3:27 AM 64.4 °F 60.8 °F 88% 29.90 in 10.0 mi Calm Calm - N/A   Overcast
3:52 AM 64.0 °F 62.1 °F 93% 29.89 in 10.0 mi Calm Calm - N/A   Overcast
4:21 AM 62.6 °F 62.6 °F 100% 29.89 in 1.8 mi Calm Calm - N/A   Overcast
4:31 AM 62.6 °F 62.6 °F 100% 29.89 in 0.5 mi Calm Calm - N/A Fog Fog
4:52 AM 63.0 °F 62.1 °F 97% 29.88 in 0.5 mi Calm Calm - N/A Fog Fog
5:08 AM 62.6 °F 62.6 °F 100% 29.88 in 0.2 mi Calm Calm - N/A Fog Fog
5:34 AM 62.6 °F 62.6 °F 100% 29.88 in 0.5 mi Calm Calm - N/A Fog Fog
5:52 AM 64.0 °F 63.0 °F 96% 29.88 in 0.5 mi Calm Calm - N/A Fog Fog
6:16 AM 64.4 °F 62.6 °F 94% 29.88 in 1.2 mi Calm Calm - N/A   Overcast
6:31 AM 64.4 °F 62.6 °F 94% 29.88 in 3.0 mi Calm Calm - N/A   Overcast
6:39 AM 64.4 °F 62.6 °F 94% 29.88 in 1.5 mi Calm Calm - N/A   Overcast
6:47 AM 64.4 °F 62.6 °F 94% 29.88 in 0.2 mi Calm Calm - N/A Fog Fog
6:52 AM 64.0 °F 63.0 °F 96% 29.87 in 0.2 mi Calm Calm - N/A Fog Fog
7:48 AM 64.4 °F 64.4 °F 100% 29.86 in 1.0 mi Calm Calm - N/A   Overcast
7:52 AM 64.9 °F 64.0 °F 97% 29.86 in 1.5 mi SSE 3.5 mph - N/A   Overcast
7:57 AM 64.4 °F 64.4 °F 100% 29.86 in 3.0 mi South 3.5 mph - N/A   Overcast
8:08 AM 64.4 °F 64.4 °F 100% 29.86 in 1.8 mi Calm Calm - 0.00 in Rain Light Rain
8:19 AM 64.4 °F 64.4 °F 100% 29.86 in 3.0 mi South 3.5 mph - 0.00 in   Overcast
8:42 AM 64.4 °F 64.4 °F 100% 29.85 in 2.5 mi Calm Calm - 0.00 in Rain Light Rain
8:50 AM 64.4 °F 64.4 °F 100% 29.85 in 3.0 mi Calm Calm - 0.00 in Rain Light Rain
8:52 AM 64.9 °F 64.9 °F 100% 29.84 in 4.0 mi Calm Calm - 0.00 in   Overcast
9:52 AM 66.9 °F 66.0 °F 97% 29.85 in 5.0 mi Calm Calm - 0.00 in Rain Light Rain
10:40 AM 69.8 °F 66.2 °F 88% 29.85 in 5.0 mi South 3.5 mph - 0.00 in Rain Light Rain
10:52 AM 70.0 °F 66.9 °F 90% 29.85 in 5.0 mi South 4.6 mph - 0.01 in Rain Light Rain
11:06 AM 71.6 °F 68.0 °F 88% 29.85 in 5.0 mi South 4.6 mph - 0.00 in Rain Light Rain
11:52 AM - - N/A% 29.83 in - North - - 0.00 in   Unknown
12:52 PM - - N/A% 29.80 in - North - - N/A   Unknown
1:52 PM - - N/A% 29.77 in - North - - N/A   Unknown
2:52 PM - - N/A% 29.76 in - North - - N/A   Unknown
3:52 PM - - N/A% 29.75 in - North - - N/A   Unknown
4:52 PM - - N/A% 29.73 in - North - - N/A   Unknown
5:52 PM - - N/A% 29.72 in - North - - N/A   Unknown
6:52 PM - - N/A% 29.72 in - North - - N/A   Unknown
7:52 PM - - N/A% 29.72 in - North - - N/A   Unknown
8:52 PM - - N/A% 29.73 in - North - - N/A   Unknown
9:52 PM - - N/A% 29.74 in - North - - N/A   Unknown
10:52 PM - - N/A% 29.73 in - North - - N/A   Unknown
11:52 PM - - N/A% 29.72 in - North - - N/A   Unknown